331  
ASUS43 KDTX 111310  
RWRMI  
MICHIGAN HOURLY REGIONAL WEATHER ROUNDUP  
NATIONAL WEATHER SERVICE DETROIT/PONTIAC MI  
800 AM EST SUN DEC 11 2016  
 
NOTE: "FAIR" INDICATES FEW OR NO CLOUDS BELOW 12,000 FEET WITH NO  
SIGNIFICANT WEATHER AND/OR TO VISIBILITY
.  
 
MIZ047>049-052>055-059>063-066>070-074>076-081>083-111400-  
SOUTHEAST LOWER MICHIGAN  
 
CITY SKY/WX TMP DP RH WIND PRES REMARKS
 
ADRIAN LGT SNOW 23 22 96 S9 30.24F FOG WCI 13  
ALMA LGT SNOW 23 21 93 E7 30.21F WCI 14  
ANN ARBOR LGT SNOW 23 22 96 SE7 30.24F FOG WCI 15  
BAD AXE LGT SNOW 22 19 90 SE5 30.27F WCI 16  
CARO LGT SNOW 22 20 93 SE6 30.25F WCI 15  
DETROIT CITY LGT SNOW 24 23 96 SE6 30.28F FOG WCI 17  
DETROIT LGT SNOW 25 23 92 S8 30.28F FOG WCI 16  
FLINT LGT SNOW 23 20 88 SE7 30.23F FOG WCI 15  
GROSSE ILE LGT SNOW 28 25 89 S15 30.27F WCI 16  
HILLSDALE LGT SNOW 23 21 93 SE8 30.18F WCI 14  
HOWELL LGT SNOW 23 21 91 SE8 30.21F WCI 14  
 
CITY SKY/WX TMP DP RH WIND PRES REMARKS
 
JACKSON LGT SNOW 23 20 88 SE10 30.19F FOG WCI 12  
LAMBERTVILLE LGT SNOW 26 23 87 SE6 30.25F WCI 20  
LANSING LGT SNOW 23 19 85 SE13 30.19F FOG WCI 11  
LAPEER NOT AVBL  
MASON LGT SNOW 23 21 93 SE8 30.20F WCI 14  
MONROE LGT SNOW 26 25 96 S8 30.26F WCI 17  
MT. CLEMENS LGT SNOW 24 24 96 SE2 30.26F FOG  
PONTIAC LGT SNOW 23 19 85 S8 30.23F VSB 3/4 WCI 14  
PORT HOPE N/A 21 19 92 S6 30.27F WCI 13  
PORT HURON LGT SNOW 23 23 100 SE3 30.30F  
TRI CITIES LGT SNOW 23 21 92 SE9 30.24F VSB 3/4 WCI 13  
MIDLAND LGT SNOW 23 20 88 SE6 30.23F WCI 16  
TROY LGT SNOW 24 22 91 CALM 30.28F VSB 1  
SAGINAW HB LGT SNOW 25 21 86 SE7 30.24F WCI 17  

 
MIZ043>046-050>051-056>058-064>065-071>073-077>080-111400-  
SOUTHWEST LOWER MICHIGAN  
 
CITY SKY/WX TMP DP RH WIND PRES REMARKS
 
BATTLE CREEK LGT SNOW 24 21 88 S14 30.15F FOG WCI 12  
BENTON HARBOR LGT SNOW 26 22 84 SE12 30.12F FOG WCI 16  
BIG RAPIDS LGT SNOW 22 19 90 SE10 30.14F WCI 11  
COLDWATER LGT SNOW 25 23 92 SE12 30.18S WCI 14  
FREMONT FLURRIES 23 21 91 SE8 30.13F WCI 14  
HOLLAND LGT SNOW 24 21 88 SE12 30.13F FOG WCI 13  
GRAND RAPIDS LGT SNOW 23 19 85 SE10 30.15F VSB 3/4 WCI 12  
IONIA LGT SNOW 22 21 93 SE9 30.16F WCI 12  
KALAMAZOO SNOW 25 20 81 SE7 30.15F VSB 1/2 WCI 17  
LUDINGTON SNOW 22 20 93 E9 30.12F VSB 1/4 WCI 12  
MARSHALL LGT SNOW 24 21 90 SE8 30.18S WCI 15  
MOUNT PLEASANT LGT SNOW 22 20 91 SE7 30.19F WCI 14  
MUSKEGON LGT SNOW 24 21 88 SE14 30.13F FOG WCI 12  
SOUTH HAVEN LGT SNOW 25 23 93 SE7 30.13F WCI 17  

 
MIZ016>042-111400-  
NORTHERN LOWER MICHIGAN  
 
CITY SKY/WX TMP DP RH WIND PRES REMARKS
 
ALPENA CLOUDY 16 10 77 CALM 30.25F  
BEAVER ISLAND LGT SNOW 21 19 93 NE3 30.17F  
BELLAIRE CLOUDY 18 16 90 CALM 30.20F  
CADILLAC LGT SNOW 19 16 87 SE8 30.11F WCI 9  
CHARLEVOIX CLOUDY 19 15 86 SE8 30.21F WCI 8  
FRANKFORT LGT SNOW 21 19 91 E6 30.15F WCI 13  
GAYLORD CLOUDY 15 11 83 SE6 30.16F FOG WCI 6  
GRAYLING LGT SNOW 18 15 89 E5 30.17F WCI 11  
HARBOR SPRINGS CLOUDY 18 14 86 NE5 30.19F WCI 11  
HOUGHTON LAKE LGT SNOW 17 14 88 SE6 30.18F FOG WCI 9  
MANISTEE LGT SNOW 21 18 88 E8 30.13F FOG WCI 11  
OSCODA CLOUDY 20 17 87 MISG 30.25F  
PELLSTON CLOUDY 16 12 84 SE5 30.20F WCI 9  
ROGERS CITY MOCLDY 18 13 79 SW7 30.24F WCI 9  
TRAVERSE CITY LGT SNOW 21 16 81 SE3 30.17F  

 
MIZ007>008-015-111400-  
EASTERN UPPER MICHIGAN  
 
CITY SKY/WX TMP DP RH WIND PRES REMARKS
 
KINROSS FLURRIES 16 14 93 E7 30.19F WCI 6  
MACKINAC ISLAN CLOUDY 21 17 84 S7 30.19F WCI 12  
NEWBERRY CLOUDY 13 9 84 CALM 30.17F  
S. S. MARIE FLURRIES 18 15 88 E6 30.19F WCI 10  
MUNISING N/A 12 3 67 S5 30.18F WCI 4  

 
MIZ004>006-011>014-085-111400-  
CENTRAL UPPER MICHIGAN  
 
CITY SKY/WX TMP DP RH WIND PRES REMARKS
 
MANISTIQUE FLURRIES 12 9 87 CALM 30.18F  
ESCANABA CLOUDY 15 10 80 N3 30.17F  
MENOMINEE LGT SNOW 16 14 93 N6 30.14F FOG WCI 7  
SAWYER-GWINN PTCLDY 7 3 85 CALM 30.13F  

 
MIZ001>003-009>011-084-111400-  
WESTERN UPPER MICHIGAN  
 
CITY SKY/WX TMP DP RH WIND PRES REMARKS
 
IRON MOUNTAIN CLOUDY 13 4 67 VRB5 30.09F WCI 5  
HOUGHTON CLOUDY 0 -5 79 CALM 30.11F  
COPPER HARBOR N/A 10 5 80 CALM 30.16F  
IRONWOOD CLOUDY 4 0 83 E6 30.08F WCI -7  

 
 
ABBREVIATIONS USED IN REMARKS  
TC - TEMPERATURE IN CELSIUS  
WCI - WIND CHILL INDEX  
HX - HEAT INDEX  
VSB - VISIBILITY  
 
 
 
CLICK HERE TO GO TO PREVIOUS BULLETINS.

The Nexlab MI Page Main Text Page